Location: ???
(60.6398°N, 46.9067°E)
Time: 19:56:27
(UTC+00:00)

SL-4 R/B - Pass Details

Date: 08 December 2019
Orbit: 428 x 667 km, 51.6° (Epoch: 17 January)

Event Time Altitude Azimuth Distance (km) Brightness Sun altitude
Rises 14:07:41 0° 212° (SSW) 2,527 6.3 -15.4°
Reaches altitude 10° 14:10:34 10° 187° (S) 1,700 4.8 -15.7°
Maximum altitude 14:12:41 14° 153° (SSE) 1,482 4.1 -15.9°
Enters shadow 14:14:00 13° 132° (SE) 1,603 4.1 -16.1°
